Погода в Эс-Канаре

Испания     39°00′04″N   1°34′35″E
темп.,
°C
ветер,
м/с
пор.,
м/с
влажн.,
%
обл.,
%
осадки,
мм/ч
давл.,
гПа
погр.,
м
17 апреля, сб
сб1723:00+12с2368100 0.1 1018171
02:00+11с236591 0.4 1018151
05:00+10св237170 0.3 1017176
08:00+11ссв355861 0.5 1017707
11:00+13с225265 0.1 10181292
14:00+12св216573 1.8 1018565
17:00+12всв12587 2.1 1017756
20:00+11юв44700 2.4 1017337
18 апреля, вс
вс1823:00+9ююв44837 0.0 1019335
02:00+10зюз34810 0.0 1019334
05:00+10зсз23750 0.0 1018150
08:00+10ссз23730 0.0 1019127
11:00+14с33530 0.0 10211016
14:00+15ссв12499 0.0 10211140
17:00+15ююв235522 0.0 10201210
20:00+13ююз34650 0.0 1020371
19 апреля, пн
пн1923:00+12ююз56740 0.0 1021389
02:00+12ююз56782 0.0 1020327
05:00+12юз5882100 0.0 1019393
08:00+13юз6983100 0.0 1018477
11:00+16юз797064 0.0 1018729
14:00+18юз776585 0.0 1017742
17:00+17юз6663100 0.0 1015563
20:00+15ююз4673100 0.0 1014242
20 апреля, вт
вт2023:00+15ю2377100 0.0 101437
02:00+14ююз5784100 0.0 1013209
05:00+14з459196 0.0 1012139
08:00+14зсз228197 0.0 101256
11:00+16с237299 0.0 1013289
14:00+18ссв3358100 0.1 1013692
17:00+17ссв4467100 0.1 1012676
20:00+14ссв477768 0.1 1013482
21 апреля, ср
ср2123:00+14с4784100 0.0 1015453
02:00+14с578297 0.0 1015529
05:00+12с688216 0.0 1015518
08:00+12с47805 0.0 1016522
11:00+15ссв566828 0.0 1017993
14:00+16ссв77647 0.1 10171130
17:00+16св67640 0.0 10171031
20:00+14св567053 0.0 1018523